User: anonymous   Login
Location: Bukit Lungun
(2.6833°N, 113.9667°E)
Time: 14:47:18
(UTC+00:00)
Language:

MOS 1 Rocket - Orbit

View from above orbital plane
View from above orbital plane
View from above satellite
View from above satellite

Ground track
Ground track

The orbit data is extracted from the following two-line orbital elements,

1 17528U 87018B   21128.74482010  .00000125  00000-0  36257-4 0  9992
2 17528  97.4081 305.4268 0152004 161.8147 198.8571 14.51053223785399
Epoch (UTC): 08 May 2021 17:52:32
Eccentricity: 0.0152004
inclination: 97.4081°
perigee height: 614 km
apogee height: 830 km
right ascension of ascending node: 305.4268°
argument of perigee: 161.8147°
revolutions per day: 14.51053223
mean anomaly at epoch: 198.8571°
orbit number at epoch: 78539

The dashed part of the orbit path shows where the satellite is in the earth's shadow,  

DLR